Flag for U.S.A. Weather past 2 weeks in Rapid City, South Dakota, U.S.A.

Now
56 °F

Partly sunny.


Feels Like: 53 °F
Forecast: 52 / 77 °F
Wind: 17 mph from South

Location: Ellsworth Air Force Base

Current Time: Sep 22, 2014 at 8:51:46 AM

Latest Report: Sep 22, 2014 at 7:58 AM


Visibility: 10 mi

Pressure: 30.05 "Hg

Humidity: 57%

Dew point: 41 °F

Location of Rapid CityLocation

Historic Weather in Rapid City — Graph

°F

Rapid City temperature yesterday

Maximum temperature yesterday: 74 °F (at 3:58 PM)
Minimum temperature yesterday: 44 °F (at 6:58 AM)
Average temperature yesterday: 59 °F

Past Weeks' High & Low Weather Summary

 TemperatureHumidityPressure
High90 °F (Sep 18, 4:58 PM)100% (Sep 9, 6:58 PM)30.62 "Hg (Sep 9, 6:58 PM)
Low31 °F (Sep 12, 6:58 AM)12% (Sep 8, 12:58 PM)29.63 "Hg (Sep 18, 10:58 PM)
Average57 °F63%30.06 "Hg
* Reported Sep 7 7:58 AM — Sep 22 7:58 AM, Rapid City, Weather by CustomWeather, © 2014

Note: Actual official high and low records may vary slightly from our data, if they occured in-between our weather recording intervals... More about our weather records

Advertising

Rapid City weather history for previous 24 hours

 ConditionsComfort  
Time TempWeatherWind HumidityBarometerVisibility
7:58 AM
Sep 22
56 °FPartly sunny.17 mph57%30.05 "Hg10 mi
6:58 AM56 °FPassing clouds.16 mph56%30.07 "Hg10 mi
5:58 AM54 °FPassing clouds.7 mph57%30.08 "Hg10 mi
4:58 AM53 °FPassing clouds.5 mph58%30.10 "Hg10 mi
3:58 AM55 °FClear.8 mph54%30.11 "Hg10 mi
2:58 AM52 °FClear.9 mph60%30.14 "Hg10 mi
1:58 AM54 °FClear.7 mph54%30.15 "Hg10 mi
12:58 AM56 °FClear.7 mph51%30.17 "Hg10 mi
11:58 PM
Sep 21
56 °FClear.8 mph50%30.18 "Hg10 mi
10:58 PM54 °FClear.6 mph54%30.21 "Hg10 mi
9:58 PM56 °FClear.5 mph50%30.22 "Hg10 mi
8:58 PM58 °FClear.6 mph48%30.24 "Hg10 mi
7:58 PM60 °FClear.8 mph44%30.24 "Hg10 mi
6:58 PM64 °FSunny.8 mph40%30.26 "Hg10 mi
5:58 PM71 °FSunny.10 mph32%30.24 "Hg10 mi
4:58 PM73 °FSunny.6 mph28%30.23 "Hg10 mi
3:58 PM74 °FSunny.3 mph28%30.25 "Hg10 mi
2:58 PM73 °FSunny.5 mph28%30.26 "Hg10 mi
1:58 PM73 °FSunny.5 mph28%30.28 "Hg10 mi
12:58 PM72 °FSunny.8 mph29%30.29 "Hg10 mi
11:58 AM69 °FSunny.2 mph30%30.32 "Hg10 mi
10:58 AM67 °FSunny.5 mph31%30.33 "Hg10 mi
9:58 AM62 °FSunny.No wind40%30.35 "Hg10 mi
8:58 AM58 °FSunny.3 mph52%30.36 "Hg10 mi
Weather by CustomWeather, © 2014

See weather overviewHow to use our weather pages